ARG1382 SAEZ-SUMU

Flight info

Callsign ARG1382
Flight time 0h 29m
Altitude 15000
Route DORVO1A DORVO A305 TOKAM
Aircraft B738/M-SDE3FGHIRWY/LB1

Departure

Time 2026-04-25 22:33
Airport Ezeiza International Airport - Ministro Pistarini (SAEZ)

Arrival

Time 2026-04-25 23:03
Airport Carrasco General Cesáreo L. Berisso International Airport (SUMU)
Time Latitude Longitude Altitude Speed Heading
2026-04-25 22:06 -34.81505 -58.53851 75 ft 0 kts 349°
2026-04-25 22:23 -34.81510 -58.53850 75 ft 3 kts 349°
2026-04-25 22:23 -34.81537 -58.53845 66 ft 4 kts 350°
2026-04-25 22:24 -34.81563 -58.53839 68 ft 4 kts 349°
2026-04-25 22:24 -34.81589 -58.53832 69 ft 4 kts 346°
2026-04-25 22:24 -34.81615 -58.53823 71 ft 4 kts 338°
2026-04-25 22:24 -34.81639 -58.53809 72 ft 4 kts 317°
2026-04-25 22:25 -34.81650 -58.53791 67 ft 4 kts 248°
2026-04-25 22:25 -34.81646 -58.53783 67 ft 1 kts 225°
2026-04-25 22:25 -34.81646 -58.53782 67 ft 0 kts 225°
2026-04-25 22:27 -34.81648 -58.53785 66 ft 1 kts 225°
2026-04-25 22:27 -34.81657 -58.53795 70 ft 2 kts 225°
2026-04-25 22:27 -34.81672 -58.53814 70 ft 4 kts 225°
2026-04-25 22:28 -34.81694 -58.53842 66 ft 5 kts 229°
2026-04-25 22:28 -34.81720 -58.53890 70 ft 8 kts 238°
2026-04-25 22:28 -34.81752 -58.53956 69 ft 10 kts 240°
2026-04-25 22:28 -34.81786 -58.54040 70 ft 12 kts 253°
2026-04-25 22:29 -34.81787 -58.54149 75 ft 14 kts 279°
2026-04-25 22:29 -34.81774 -58.54272 75 ft 15 kts 276°
2026-04-25 22:29 -34.81759 -58.54404 75 ft 16 kts 278°
2026-04-25 22:30 -34.81779 -58.54684 66 ft 17 kts 262°
2026-04-25 22:30 -34.81766 -58.54833 73 ft 18 kts 282°
2026-04-25 22:30 -34.81738 -58.54987 75 ft 19 kts 282°
2026-04-25 22:30 -34.81720 -58.55092 68 ft 19 kts 282°
2026-04-25 22:31 -34.81708 -58.55298 66 ft 16 kts 244°
2026-04-25 22:31 -34.81788 -58.55345 70 ft 11 kts 167°
2026-04-25 22:31 -34.81811 -58.55324 77 ft 7 kts 147°
2026-04-25 22:31 -34.81894 -58.55264 73 ft 14 kts 150°
2026-04-25 22:32 -34.81936 -58.55173 76 ft 12 kts 103°
2026-04-25 22:32 -34.81956 -58.55067 74 ft 13 kts 102°
2026-04-25 22:32 -34.81984 -58.54915 83 ft 31 kts 102°
2026-04-25 22:32 -34.82085 -58.54345 85 ft 103 kts 102°
2026-04-25 22:33 -34.82283 -58.53249 85 ft 159 kts 102°
2026-04-25 22:33 -34.82544 -58.51821 370 ft 180 kts 102°
2026-04-25 22:33 -34.82851 -58.50351 1002 ft 180 kts 112°
2026-04-25 22:33 -34.83583 -58.49092 1463 ft 191 kts 133°
2026-04-25 22:34 -34.84543 -58.47862 1719 ft 208 kts 132°
2026-04-25 22:34 -34.85549 -58.46507 1933 ft 225 kts 129°
2026-04-25 22:34 -34.86472 -58.44837 2079 ft 251 kts 121°
2026-04-25 22:34 -34.87410 -58.42961 2620 ft 264 kts 120°
2026-04-25 22:35 -34.88353 -58.41019 3355 ft 269 kts 120°
2026-04-25 22:35 -34.89291 -58.39060 4099 ft 273 kts 120°
2026-04-25 22:35 -34.90249 -58.37039 4858 ft 277 kts 118°
2026-04-25 22:35 -34.90926 -58.34833 5567 ft 281 kts 101°
2026-04-25 22:36 -34.91274 -58.32469 6288 ft 285 kts 100°
2026-04-25 22:36 -34.91626 -58.30068 6970 ft 290 kts 100°
2026-04-25 22:36 -34.91989 -58.27630 7640 ft 294 kts 101°
2026-04-25 22:36 -34.92151 -58.25135 8321 ft 299 kts 83°
2026-04-25 22:37 -34.91625 -58.22676 9000 ft 302 kts 70°
2026-04-25 22:37 -34.90948 -58.20244 9708 ft 306 kts 70°
2026-04-25 22:37 -34.90251 -58.17762 10221 ft 317 kts 70°
2026-04-25 22:37 -34.89509 -58.15133 10371 ft 340 kts 70°
2026-04-25 22:38 -34.88718 -58.12322 10585 ft 358 kts 70°
2026-04-25 22:38 -34.87907 -58.09423 11116 ft 365 kts 70°
2026-04-25 22:38 -34.87081 -58.06477 11739 ft 369 kts 70°
2026-04-25 22:38 -34.86247 -58.03502 12373 ft 373 kts 70°
2026-04-25 22:39 -34.85408 -58.00496 12997 ft 377 kts 70°
2026-04-25 22:39 -34.84570 -57.97501 13612 ft 381 kts 70°
2026-04-25 22:39 -34.83707 -57.94429 14182 ft 385 kts 69°
2026-04-25 22:39 -34.82837 -57.91334 14711 ft 389 kts 69°
2026-04-25 22:40 -34.81960 -57.88209 14915 ft 391 kts 69°
2026-04-25 22:40 -34.81079 -57.85077 14960 ft 391 kts 69°
2026-04-25 22:40 -34.80193 -57.81942 14961 ft 391 kts 69°
2026-04-25 22:40 -34.79308 -57.78813 14965 ft 391 kts 69°
2026-04-25 22:41 -34.78421 -57.75683 14963 ft 391 kts 69°
2026-04-25 22:41 -34.77535 -57.72558 14962 ft 391 kts 69°
2026-04-25 22:41 -34.76649 -57.69435 14954 ft 391 kts 69°
2026-04-25 22:41 -34.75758 -57.66307 14955 ft 391 kts 69°
2026-04-25 22:42 -34.74869 -57.63193 14958 ft 391 kts 69°
2026-04-25 22:42 -34.73980 -57.60068 14953 ft 390 kts 69°
2026-04-25 22:42 -34.73094 -57.56950 14946 ft 390 kts 69°
2026-04-25 22:42 -34.72272 -57.53805 14949 ft 391 kts 76°
2026-04-25 22:43 -34.71878 -57.50533 14956 ft 392 kts 87°
2026-04-25 22:43 -34.71984 -57.47216 14958 ft 392 kts 96°
2026-04-25 22:43 -34.72279 -57.43913 14952 ft 392 kts 96°
2026-04-25 22:43 -34.72564 -57.40615 14950 ft 392 kts 96°
2026-04-25 22:44 -34.72843 -57.37316 14950 ft 392 kts 96°
2026-04-25 22:44 -34.73116 -57.34023 14957 ft 392 kts 96°
2026-04-25 22:44 -34.73385 -57.30728 14918 ft 390 kts 96°
2026-04-25 22:44 -34.73646 -57.27490 14668 ft 379 kts 96°
2026-04-25 22:45 -34.73902 -57.24338 14438 ft 370 kts 96°
2026-04-25 22:45 -34.74156 -57.21268 14202 ft 361 kts 96°
2026-04-25 22:45 -34.74405 -57.18271 13960 ft 353 kts 96°
2026-04-25 22:45 -34.74650 -57.15326 13725 ft 349 kts 96°
2026-04-25 22:46 -34.74891 -57.12394 13462 ft 346 kts 96°
2026-04-25 22:46 -34.75127 -57.09489 13202 ft 345 kts 96°
2026-04-25 22:46 -34.75357 -57.06599 12931 ft 343 kts 96°
2026-04-25 22:46 -34.75585 -57.03727 12683 ft 341 kts 96°
2026-04-25 22:47 -34.75813 -57.00863 12427 ft 339 kts 96°
2026-04-25 22:47 -34.76039 -56.98053 12177 ft 337 kts 96°
2026-04-25 22:47 -34.76266 -56.95221 11923 ft 336 kts 95°
2026-04-25 22:47 -34.76492 -56.92404 11672 ft 334 kts 95°
2026-04-25 22:48 -34.76720 -56.89565 11422 ft 332 kts 95°
2026-04-25 22:48 -34.76939 -56.86812 11175 ft 331 kts 95°
2026-04-25 22:48 -34.77162 -56.84038 10928 ft 329 kts 95°
2026-04-25 22:48 -34.77384 -56.81279 10689 ft 327 kts 95°
2026-04-25 22:49 -34.77604 -56.78495 10448 ft 325 kts 95°
2026-04-25 22:49 -34.77815 -56.75799 10212 ft 324 kts 95°
2026-04-25 22:49 -34.78018 -56.73081 9968 ft 322 kts 92°
2026-04-25 22:49 -34.77929 -56.70403 9809 ft 311 kts 80°
2026-04-25 22:50 -34.77529 -56.67872 9683 ft 302 kts 77°
2026-04-25 22:50 -34.77110 -56.65379 9544 ft 300 kts 77°
2026-04-25 22:50 -34.76697 -56.62893 9409 ft 299 kts 77°
2026-04-25 22:50 -34.76288 -56.60416 9276 ft 298 kts 77°
2026-04-25 22:51 -34.75880 -56.57945 9148 ft 297 kts 77°
2026-04-25 22:51 -34.75473 -56.55487 9022 ft 296 kts 77°
2026-04-25 22:51 -34.75065 -56.53031 8889 ft 296 kts 77°
2026-04-25 22:51 -34.74656 -56.50585 8757 ft 295 kts 77°
2026-04-25 22:52 -34.74250 -56.48143 8630 ft 294 kts 77°
2026-04-25 22:52 -34.73844 -56.45709 8505 ft 293 kts 77°
2026-04-25 22:52 -34.73438 -56.43279 8364 ft 293 kts 77°
2026-04-25 22:52 -34.73171 -56.41674 8290 ft 292 kts 77°
2026-04-25 22:53 -34.72633 -56.38472 8122 ft 291 kts 77°
2026-04-25 22:53 -34.72228 -56.36066 8000 ft 290 kts 77°
2026-04-25 22:53 -34.71826 -56.33661 7864 ft 290 kts 77°
2026-04-25 22:53 -34.71428 -56.31268 7748 ft 289 kts 77°
2026-04-25 22:54 -34.71026 -56.28875 7626 ft 288 kts 77°
2026-04-25 22:54 -34.70623 -56.26493 7498 ft 288 kts 77°
2026-04-25 22:54 -34.70220 -56.24115 7374 ft 287 kts 77°
2026-04-25 22:54 -34.69818 -56.21746 7248 ft 286 kts 77°
2026-04-25 22:55 -34.69416 -56.19382 7134 ft 285 kts 77°
2026-04-25 22:55 -34.69013 -56.17020 7012 ft 285 kts 77°
2026-04-25 22:55 -34.68613 -56.14667 6885 ft 284 kts 77°
2026-04-25 22:55 -34.68213 -56.12311 6770 ft 284 kts 77°
2026-04-25 22:56 -34.67817 -56.09969 6644 ft 283 kts 77°
2026-04-25 22:56 -34.67417 -56.07628 6527 ft 282 kts 77°
2026-04-25 22:56 -34.67016 -56.05286 6367 ft 283 kts 77°
2026-04-25 22:56 -34.66616 -56.02944 5947 ft 282 kts 77°
2026-04-25 22:57 -34.66221 -56.00633 5523 ft 277 kts 77°
2026-04-25 22:57 -34.65831 -55.98359 5094 ft 274 kts 77°
2026-04-25 22:57 -34.65451 -55.96136 4726 ft 270 kts 78°
2026-04-25 22:57 -34.65414 -55.93863 4461 ft 272 kts 99°
2026-04-25 22:58 -34.66060 -55.91719 4163 ft 273 kts 120°
2026-04-25 22:58 -34.67300 -55.90008 3850 ft 268 kts 141°
2026-04-25 22:58 -34.68780 -55.88694 3557 ft 259 kts 142°
2026-04-25 22:58 -34.70209 -55.87421 3265 ft 250 kts 142°
2026-04-25 22:59 -34.71681 -55.86397 3038 ft 238 kts 166°
2026-04-25 22:59 -34.73266 -55.86583 2966 ft 231 kts 206°
2026-04-25 22:59 -34.74461 -55.87775 2706 ft 215 kts 230°
2026-04-25 22:59 -34.75353 -55.89165 2403 ft 202 kts 235°
2026-04-25 23:00 -34.76164 -55.90501 2145 ft 191 kts 235°
2026-04-25 23:00 -34.76928 -55.91756 1910 ft 179 kts 235°
2026-04-25 23:00 -34.77658 -55.92951 1669 ft 174 kts 235°
2026-04-25 23:00 -34.78375 -55.94125 1448 ft 172 kts 235°
2026-04-25 23:01 -34.79061 -55.95248 1230 ft 161 kts 235°
2026-04-25 23:01 -34.79713 -55.96315 1014 ft 158 kts 234°
2026-04-25 23:01 -34.80364 -55.97382 839 ft 156 kts 234°
2026-04-25 23:01 -34.81007 -55.98435 671 ft 154 kts 233°
2026-04-25 23:02 -34.81645 -55.99481 500 ft 153 kts 233°
2026-04-25 23:02 -34.82276 -56.00516 316 ft 152 kts 233°
2026-04-25 23:02 -34.82903 -56.01545 113 ft 151 kts 233°
2026-04-25 23:02 -34.83472 -56.02479 85 ft 113 kts 233°
2026-04-25 23:03 -34.83852 -56.03102 86 ft 66 kts 233°
2026-04-25 23:03 -34.84005 -56.03350 82 ft 22 kts 236°
2026-04-25 23:03 -34.84063 -56.03453 84 ft 22 kts 235°
2026-04-25 23:03 -34.84152 -56.03601 85 ft 17 kts 233°
2026-04-25 23:04 -34.84227 -56.03663 86 ft 13 kts 172°
2026-04-25 23:04 -34.84238 -56.03607 84 ft 6 kts 69°
2026-04-25 23:04 -34.84221 -56.03555 86 ft 7 kts 64°
2026-04-25 23:04 -34.84195 -56.03494 82 ft 9 kts 61°
2026-04-25 23:05 -34.84163 -56.03425 84 ft 10 kts 61°
2026-04-25 23:05 -34.84130 -56.03346 86 ft 11 kts 62°
2026-04-25 23:05 -34.84093 -56.03261 85 ft 12 kts 62°
2026-04-25 23:05 -34.84051 -56.03168 82 ft 13 kts 60°
2026-04-25 23:06 -34.84013 -56.03065 83 ft 14 kts 76°
2026-04-25 23:06 -34.84011 -56.02946 85 ft 14 kts 91°
2026-04-25 23:06 -34.84010 -56.02820 87 ft 15 kts 86°
2026-04-25 23:06 -34.83965 -56.02704 85 ft 16 kts 61°
2026-04-25 23:07 -34.83946 -56.02573 82 ft 16 kts 88°
2026-04-25 23:07 -34.83946 -56.02434 82 ft 17 kts 90°
2026-04-25 23:07 -34.83945 -56.02293 82 ft 16 kts 84°
2026-04-25 23:07 -34.83863 -56.02242 87 ft 15 kts
2026-04-25 23:08 -34.83764 -56.02204 86 ft 16 kts 44°
2026-04-25 23:08 -34.83696 -56.02096 85 ft 17 kts 53°
2026-04-25 23:08 -34.83624 -56.01979 83 ft 18 kts 53°
2026-04-25 23:08 -34.83557 -56.01868 82 ft 13 kts 53°
2026-04-25 23:09 -34.83516 -56.01800 84 ft 8 kts 62°
2026-04-25 23:09 -34.83544 -56.01752 86 ft 8 kts 147°
2026-04-25 23:09 -34.83571 -56.01730 82 ft 0 kts 143°